Location: Newark
(13.6797°N, 8.5297°E)
Time: 18:19:00
(UTC+00:00)

A-11 Canister half - Pass Details

Date: 18 January 2020
Orbit: 1517 x 1683 km, 47.2° (Epoch: 26 February)

Event Time Altitude Azimuth Distance (km) Brightness Sun altitude
Rises 09:47:44 0° 307° (NW) 4,718 11.2 46.6°
Reaches altitude 10° 09:50:54 10° 302° (WNW) 3,755 10.8 47.1°
Maximum altitude 09:59:52 47° 231° (SW) 2,032 10.3 48.3°
Drops below altitude 10° 10:09:12 10° 161° (SSE) 3,878 12.0 49.6°
Sets 10:12:33 0° 155° (SSE) 4,884 12.3 50.0°
